www.pogodaiklimat.ru

Погода и климат >> Архив погоды >> Перу >> Tarapoto


ПОГОДА в Tarapoto

  • Прогноз погоды в Tarapoto
  • Монитор погоды в Tarapoto
  • Климат города

АРХИВ ПОГОДЫ в Tarapoto

Время (UTC), дата Ветер
(напр.,м/с)
 
Видим.   Явления Облачность Т
(С)
Тd
(С)
f
(%)
Тe
(С)
Тes
(С)
Комфортность P
(гПа)
Po
(гПа)
Тmin
(С)
Tmax
(С)
R
(мм)
R24
(мм)
S
(см)
15 17.11 штиль 0 10 км 10/4 750 м
[Sc Ac trans]
+29.5 +23.3 69 +40 +45 очень
душно
1009.6 981.2
18 17.11 С 6 10 км 9/4 600 м
[Cu hum Ac trans]
+32.5 +21.9 54 +41 +43 опасность
перегрева
1007.9 979.7
21 17.11 СЗ 4 10 км 4/4 600 м
[Cu hum]
+33.0 +21.8 52 +41 +44 опасность
перегрева
1003.6 975.6
00 18.11 ЮЗ 3 10 км 4/4 750 м
[Sc]
+29.0 +21.1 62 +36 +36 очень
душно
1004.5 976.1 +34.6
03 18.11 штиль 0 10 км 4/4 600 м
[Sc]
+25.9 +22.3 81 +34 +34 очень
душно
1008.2 979.4
12 18.11 штиль 0 10 км 6/3 750 м
[Cu hum Ac trans]
+24.0 +23.3 96 +32 +33 очень
душно
1007.6 978.7 +23.3
15 18.11 В 2 10 км 4/4 600 м
[Cu hum]
+31.3 +22.8 61 +41 +51 опасность
перегрева
1008.0 979.7
18 18.11 С 4 10 км 5/5 600 м
[Cu hum]
+35.3 +21.5 45 +43 +50 опасность
перегрева
1004.4 976.5
21 18.11 СВ 3 10 км 4/4 600 м
[Cu hum]
+31.9 +22.3 57 +41 +44 опасность
перегрева
1000.2 973.2
00 19.11 штиль 0 10 км 4/4 750 м
[Cu hum]
+28.4 +23.4 74 +38 +38 очень
душно
1002.7 974.3 +36.3
03 19.11 штиль 0 10 км 3/3 750 м
[Cu hum]
+26.2 +23.5 85 +36 +36 очень
душно
1006.0 977.3
12 19.11 штиль 0 10 км 4/4 750 м
[Cu hum]
+26.0 +24.0 89 +36 +37 очень
душно
1006.2 977.3 +23.8
15 19.11 С 5 10 км 4/4 600 м
[Cu hum]
+33.8 +22.5 52 +43 +48 опасность
перегрева
1007.3 979.3
18 19.11 СВ 3 10 км 5/5 600 м
[Cu hum]
+35.0 +23.0 50 +45 +53 опасность
перегрева
1005.4 977.5
21 19.11 С 4 10 км 4/4 600 м
[Cu hum]
+34.4 +22.7 51 +44 +47 опасность
перегрева
1001.0 973.1
00 20.11 штиль 0 10 км 4/4 600 м
[]
+29.0 +22.6 68 +38 +38 очень
душно
1003.4 975.0 +35.8
03 20.11 СВ 3 10 км 8/4 600 м
[Cu med, cong Ac trans]
+28.6 +23.2 73 +39 +39 очень
душно
1007.6 979.1
12 20.11 штиль 0 10 км 6/3 750 м
[Cu hum Ac trans]
+24.4 +23.4 94 +33 +34 очень
душно
1008.2 979.2 +23.0
15 20.11 С 6 10 км 4/4 600 м
[Cu med, cong]
+32.9 +21.7 52 +41 +45 опасность
перегрева
1007.7 979.6
18 20.11 С 4 10 км 4/4 600 м
[Cu med, cong]
+35.2 +22.5 48 +44 +52 опасность
перегрева
1005.3 977.4
21 20.11 З 2 10 км 6/3 600 м
[Cu hum Ac trans]
+34.4 +23.4 53 +45 +48 опасность
перегрева
1002.0 974.1
00 21.11 С 6 10 км осадки на расстоянии 10/6 600 м
[Cu med, cong Ac trans]
+30.1 +20.6 57 +37 +37 очень
душно
1006.1 977.8 +35.9
03 21.11 В 2 10 км 10/4 600 м
[Cu med, cong Ac trans]
+26.3 +22.6 80 +35 +35 очень
душно
1009.6 980.8
12 21.11 ЮВ 2 10 км 10/3 600 м
[Sc Ac trans]
+23.6 +22.9 96 +31 +32 очень
душно
1010.0 981.0 +23.1
15 21.11 ЮВ 1 10 км 10/3 600 м
[Cu hum Ac trans]
+26.8 +22.9 79 +36 +41 очень
душно
1009.5 980.8
18 21.11 Ю 3 10 км 8/4 600 м
[Cu med, cong Ac trans]
+32.4 +22.4 56 +42 +48 опасность
перегрева
1007.5 979.3
00 22.11 штиль 0 10 км 4/4 750 м
[Cu hum]
+26.0 +22.4 81 +34 +34 очень
душно
1006.2 977.6 +33.7
03 22.11 штиль 0 10 км 4/4 750 м
[Cu hum]
+26.0 +22.4 81 +34 +34 очень
душно
1006.2 977.6 +33.7
12 22.11 штиль 0 10 км 8/4 750 м
[Cu hum Ac trans]
+23.0 +22.3 96 +31 +32 очень
душно
1010.6 981.5 +22.0
15 22.11 штиль 0 10 км 8/4 750 м
[Cu hum Ac trans]
+27.9 +22.0 70 +36 +44 очень
душно
1011.8 983.1
18 22.11 Ю 2 10 км 8/4 600 м
[Cu hum Ac trans]
+27.9 +23.6 77 +38 +46 очень
душно
1009.2 980.6
21 22.11 ЮЗ 1 10 км 10/3 750 м
[Cu hum Ac trans]
+29.4 +23.9 72 +40 +42 очень
душно
1006.2 977.8
00 23.11 З 2 10 км 10/3 750 м
[Cu hum Ac trans]
+26.3 +23.4 84 +36 +36 очень
душно
1006.9 978.2 +30.5
03 23.11 Ю 1 10 км 10/3 750 м
[Sc Ac trans]
+24.2 +22.7 91 +32 +32 очень
душно
1010.3 981.3
12 23.11 штиль 0 10 км 3/3 600 м
[Cu hum]
+24.0 +22.3 90 +31 +33 очень
душно
1010.8 981.8 +22.5
15 23.11 Ю 3 10 км 3/3 600 м
[Cu hum]
+31.2 +22.3 59 +40 +49 очень
душно
1010.7 982.3
18 23.11 С 6 10 км 4/4 600 м
[Cu hum]
+34.4 +22.3 49 +43 +48 опасность
перегрева
1007.5 979.5
21 23.11 С 6 10 км 4/4 750 м
[Cu hum]
+33.0 +21.4 51 +41 +42 опасность
перегрева
1004.5 976.5
00 24.11 В 2 10 км 3/3 750 м
[Cu hum]
+28.8 +21.2 64 +36 +36 очень
душно
1005.2 977.7 +34.8
03 24.11 штиль 0 10 км 3/3 750 м
[Cu hum]
+26.0 +21.8 78 +33 +33 очень
душно
1009.6 980.8

 

Местоположение метеостанции Tarapoto (Перу): широта -6.50 долгота -76.36 высота над уровнем моря 282 м.

В архиве по умолчанию представлена погода в Tarapoto за последнюю неделю. Архивные данные за месяц целиком и за предыдущие месяцы, начиная с января 2011 года, Вы можете получить, выбрав интересующий диапазон дат из раскрывающегося списка и нажав кнопку "Ввод!".

Внимание! Время в таблицах - всемирное. Для получения местного времени необходимо прибавить поправку, которая в Tarapoto равна -5 ч.

Смотрите также архив погоды в соседних городах и на ближайших метеорологических станциях:

Погода в Yurimaguas (Перу) (74 км)
Погода в Juanjui (Перу) (84 км)
Погода в Chachapoyas (Перу) (168 км)
Погода в Cajamarca (Перу) (242 км)
Погода в Pucallpa (Перу) (288 км)
Погода в Tingo Maria (Перу) (312 км)
Погода в Anta (Перу) (345 км)
Погода в Trujillo (Перу) (350 км)
Погода в Huanuco (Перу) (375 км)
Погода в Chimbote (Перу) (376 км)

Пояснения к столбцам:

Ветер - указаны скорость ветра в м/с - средняя за 10 мин, порывы в срок и между сроками (в фигурных скобках) и направление, откуда дует ветер: С - северный, СВ - северо-восточный, В - восточный, ЮВ - юго-восточный, Ю - южный, ЮЗ - юго-западный, З - западный, СЗ - северо-западный.
Видимость - горизонтальная дальность видимости в метрах или километрах. При видимости от 1 до 10 км при отсутствии осадков обычно наблюдается дымка, при ухудшении видимости до 1 км и менее - туман. В сухую погоду видимость может ухудшаться дымом, пылью или мглою.
Явления - указаны атмосферные явления, наблюдавшиеся в срок или в последний час перед сроком; фигурными скобками обозначены явления, наблюдавшиеся между сроками (за 1-3 часа до срока); квадратными скобками обозначены град или гололедные отложения с указанием их диаметра в мм.
Облачность - указаны через наклонную черту общая и нижняя облачность в баллах и высота нижней границы облаков в метрах; квадратными скобками обозначены формы облаков: Ci - перистые, Cs - перисто-слоистые, Cc - перисто-кучевые, Ac - высококучевые, As - высокослоистые, Sc - слоисто-кучевые, Ns - слоисто-дождевые, Cu - кучевые, Cb - кучево-дождевые. Подробнее классификацию облаков см. в Атласе облаков (PDF).
T - Температура воздуха - температура, измеренная на высоте 2 м над землей.
Td - Температура точки росы - температура, при понижении до которой содержащийся в воздухе водяной пар достигнет насыщения.
f - Относительная влажность воздуха - влажноcть воздуха, измеренная на высоте 2 м над землей.
Te - Эффективная температура - температура, которую ощущает одетый по сезону человек в тени. Характеристика душности погоды. При расчете учитывается влияние влажности воздуха и скорости ветра на теплоощущения человека.
Tes - Эффективная температура на солнце - температура, которую ощущает человек, с поправкой на солнечный нагрев. Характеристика знойности погоды. Зависит от высоты солнца над горизонтом, облачности и скорости ветра. Ночью, в пасмурную погоду, а также при ветре 12 м/с и более поправка равна нулю.
P - Атмосферное давление - приведенное к уровню моря атмосферное давление.
Po - Атмосферное давление - измеренное на уровне метеостанции атмосферное давление.
Tmin - Минимальная температура - минимум температуры воздуха на высоте 2 м над землей.
Tmax - Максимальная температура - максимум температуры воздуха на высоте 2 м над землей.
R - Количество осадков - Количество выпавших осадков за период времени, мм. При наведении курсора мыши на число - период времени, за который выпало указанное количество осадков.
R24 - Количество осадков - Количество выпавших осадков за 24 часа, мм.
S - Снежный покров - Высота снежного покрова, см. При наведении курсора мыши на число - состояние снежного покрова и степень покрытия местности в баллах.